Mobile, AL

8:15 AM CDT on April 28, 2017 (GMT -0500)
Mobile Regional

Weather History for KMOB - March, 2015

Change the Weather History Date:

Sunday, March 8, 2015

  Actual Average Record
Temperature  
Mean Temperature 56 °F 59 °F  
Max Temperature 72 °F 69 °F 83 °F (1980)
Min Temperature 39 °F 48 °F 26 °F (1996)
Degree Days  
Heating Degree Days 9 7  
Month to date heating degree days 79 64  
Since 1 July heating degree days 1781 1506  
Cooling Degree Days 0 1  
Month to date cooling degree days 9 8  
Year to date cooling degree days 13 24  
Growing Degree Days 8 (Base 50)    
Moisture  
Dew Point 43 °F    
Average Humidity 60    
Maximum Humidity 93    
Minimum Humidity 26    
Precipitation  
Precipitation 0.00 in 0.21 in 1.75 in (1919)
Month to date precipitation 0.58 1.62  
Year to date precipitation 6.63 12.39  
Snow  
Snow 0.00 in 0.00 in - ()
Month to date snowfall 0.0 0.0  
Since 1 July snowfall T 0.1  
Snow Depth 0.00 in    
Sea Level Pressure  
Sea Level Pressure 30.24 in    
Wind  
Wind Speed 5 mph (SE)    
Max Wind Speed 14 mph    
Max Gust Speed 21 mph    
Visibility 10 miles    
Events      
T = Trace of Precipitation, MM = Missing Value Source: NWS Daily Summary

Daily Weather History Graph

Daily Weather History Graph

Search for Another Location

Airport or City:

Trip Planner

Search our weather history database for the weather conditions in past years. The results will help you decide how hot, cold, wet, or windy it might be!

Date:

Astronomy

Mar. 08, 2015 Rise Set
Actual Time 7:11 AM CDT 6:56 PM CDT
Civil Twilight 6:47 AM CDT 7:20 PM CDT
Nautical Twilight 6:19 AM CDT 7:48 PM CDT
Astronomical Twilight 5:51 AM CDT 8:16 PM CDT
Moon 9:40 PM CDT (3/8) 8:41 AM CDT (3/8)
Length of Visible Light 12h 32m
Length of Day
11h 44m
Waning Gibbous, 92% of the Moon is Illuminated
Mar 8
Waning Gibbous
Mar 13
Last Quarter
Mar 20
New
Mar 27
First Quarter
Apr 4
Full

Hourly Weather History & Observations

Time (CDT) Temp. Windchill Dew Point Humidity Pressure Visibility Wind Dir Wind Speed Gust Speed Precip Events Conditions
12:56 AM 39.9 °F - 37.9 °F 93% 30.32 in 10.0 mi Calm Calm - N/A   Scattered Clouds
1:56 AM 42.1 °F - 39.0 °F 89% 30.30 in 10.0 mi Calm Calm - N/A   Clear
3:56 AM 45.0 °F - 41.0 °F 86% 30.28 in 10.0 mi Calm Calm - N/A   Clear
4:56 AM 46.0 °F - 39.9 °F 79% 30.27 in 10.0 mi Calm Calm - N/A   Partly Cloudy
5:56 AM 44.1 °F 42.5 °F 37.9 °F 79% 30.29 in 7.0 mi NE 3.5 mph - N/A   Partly Cloudy
6:56 AM 46.4 °F - 35.6 °F 66% 30.31 in 7.0 mi Calm Calm - N/A   Scattered Clouds
7:56 AM 46.9 °F - 35.1 °F 63% 30.31 in 10.0 mi NE 3.5 mph - N/A   Scattered Clouds
8:56 AM 54.0 °F - 37.9 °F 55% 30.32 in 10.0 mi ESE 6.9 mph - N/A   Scattered Clouds
9:56 AM 59.0 °F - 34.0 °F 39% 30.32 in 10.0 mi East 5.8 mph - N/A   Scattered Clouds
10:56 AM 64.0 °F - 33.1 °F 31% 30.31 in 10.0 mi ESE 11.5 mph - N/A   Scattered Clouds
11:56 AM 66.0 °F - 30.9 °F 27% 30.28 in 10.0 mi ESE 11.5 mph - N/A   Partly Cloudy
12:56 PM 68.0 °F - 34.0 °F 28% 30.27 in 10.0 mi East 8.1 mph - N/A   Mostly Cloudy
1:56 PM 70.0 °F - 37.0 °F 30% 30.24 in 10.0 mi SSE 9.2 mph 16.1 mph N/A   Mostly Cloudy
2:56 PM 72.0 °F - 39.9 °F 31% 30.20 in 10.0 mi SE 10.4 mph 20.7 mph N/A   Scattered Clouds
3:56 PM 70.0 °F - 39.9 °F 33% 30.19 in 10.0 mi SSE 6.9 mph - N/A   Scattered Clouds
4:56 PM 70.0 °F - 36.0 °F 29% 30.18 in 10.0 mi SSE 8.1 mph - N/A   Clear
5:56 PM 68.0 °F - 39.0 °F 35% 30.18 in 10.0 mi SE 9.2 mph - N/A   Partly Cloudy
6:56 PM 63.0 °F - 52.0 °F 67% 30.19 in 10.0 mi SSW 6.9 mph - N/A   Partly Cloudy
7:56 PM 59.0 °F - 51.1 °F 75% 30.20 in 10.0 mi SSE 5.8 mph - N/A   Scattered Clouds
8:56 PM 59.0 °F - 52.0 °F 78% 30.19 in 10.0 mi ESE 4.6 mph - N/A   Partly Cloudy
9:56 PM 55.9 °F - 53.1 °F 90% 30.19 in 10.0 mi ESE 4.6 mph - N/A   Partly Cloudy
10:56 PM 57.0 °F - 54.0 °F 89% 30.19 in 10.0 mi Calm Calm - N/A   Mostly Cloudy
11:41 PM 57.0 °F - 55.0 °F 93% 30.18 in 10.0 mi SE 4.6 mph - N/A   Mostly Cloudy
11:56 PM 57.0 °F - 55.0 °F 93% 30.17 in 10.0 mi SE 5.8 mph - N/A   Scattered Clouds
12:43 AM 57.9 °F - 55.9 °F 93% 30.17 in 10.0 mi Calm Calm - N/A   Mostly Cloudy
12:56 AM 57.0 °F - 55.0 °F 93% 30.17 in 10.0 mi Calm Calm - N/A   Overcast